Vertical_Velocity
1 3 3 4 0 1 -0 1 -0 -2 0 0 -1 -0 1 0 -2 -1 2 -1 1 -0
2 2 3 2 1 0 -0 -1 -1 -0 -1 -0 2 -0 -0 -3 -1 -0 -0 0 -1 -0
3 2 2 2 2 1 -1 0 1 0 2 1 1 0 -2 -1 1 -1 0 -1 -2 0
1 2 2 2 1 -0 1 0 1 1 1 -0 0 -1 -0 1 -1 -4 -3 0 -1 -1
2 3 2 1 -0 -1 1 -1 -1 0 -0 -1 -3 -1 -1 -3 -1 -2 -3 -2 -1 -2
1 1 1 -0 -1 2 0 -0 0 -0 -1 -3 -3 -2 0 -1 -1 -0 -0 0 0 -1
1 1 0 -0 1 0 -0 1 1 -1 -2 -3 -1 1 -0 -2 -3 -2 -0 -1 -2 -0
0 1 -0 1 -0 0 1 -0 -2 -4 2 2 1 -1 -3 -1 -1 -1 -3 -1 1 0
1 0 0 0 -0 1 -0 -3 -0 3 -1 -4 -3 -2 -2 0 -2 -2 1 -1 -1 -1
0 0 1 0 2 -1 -2 2 1 -1 -2 -1 -1 -1 -0 -1 -2 -0 -0 -2 -4 -5
1 1 0 1 -2 -0 2 -2 -3 -2 -1 -2 -0 -1 -2 -1 0 -0 -2 -4 -3 0
1 2 -1 -1 2 -1 -2 -0 0 -1 -4 -2 -1 -3 -0 -0 -0 -4 -6 -2 -3 -10
0 -2 1 1 -1 -2 -1 -0 -4 -3 0 -1 -1 -0 -2 -1 -4 -2 0 7 -1 2
1 1 -0 -1 0 1 -1 -1 2 -1 -2 -1 -0 -2 -3 -4 -0 -1 6 2 1 3
Height
1478 1481 1483 1483 1484 1486 1486 1486 1485 1483 1481 1479 1476 1474 1471 1468 1466 1463 1459 1456 1453 1449
1476 1479 1481 1482 1483 1483 1484 1484 1482 1481 1478 1476 1473 1470 1467 1465 1462 1459 1455 1451 1447 1443
1475 1478 1480 1480 1481 1482 1482 1481 1480 1478 1475 1473 1470 1467 1464 1461 1458 1454 1450 1446 1441 1437
1474 1476 1478 1479 1479 1480 1479 1478 1477 1474 1472 1469 1466 1463 1460 1457 1453 1449 1445 1441 1436 1431
1473 1475 1476 1477 1477 1477 1476 1475 1473 1471 1468 1465 1462 1460 1456 1452 1448 1443 1439 1434 1429 1424
1471 1473 1474 1475 1475 1475 1473 1472 1470 1467 1465 1462 1459 1455 1452 1447 1443 1438 1433 1428 1423 1418
1469 1471 1472 1472 1472 1472 1471 1469 1466 1464 1461 1458 1455 1451 1446 1441 1437 1432 1428 1423 1417 1412
1467 1468 1469 1470 1470 1469 1467 1465 1463 1461 1458 1454 1450 1445 1440 1436 1431 1425 1420 1416 1411 1406
1464 1466 1467 1467 1467 1466 1464 1462 1460 1457 1453 1449 1445 1440 1435 1430 1424 1419 1414 1408 1403 1399
1462 1463 1464 1464 1464 1462 1461 1459 1456 1453 1449 1445 1440 1434 1430 1425 1419 1414 1409 1404 1399 1394
1460 1461 1462 1461 1461 1460 1458 1455 1453 1449 1445 1440 1435 1429 1424 1419 1414 1409 1405 1401 1397 1391
1458 1459 1459 1459 1458 1456 1455 1452 1449 1444 1440 1434 1430 1424 1419 1414 1409 1404 1400 1396 1392 1387
1456 1456 1457 1456 1455 1453 1451 1448 1444 1440 1436 1431 1425 1420 1415 1410 1405 1400 1394 1390 1385 1382
1454 1454 1454 1454 1452 1450 1447 1444 1440 1436 1432 1427 1421 1416 1411 1407 1403 1398 1391 1386 1380 1375